This is the latest recevied weather packets stored in our database for station/object SP6PWT-13. If no packets are shown the sender has not sent any weather packets the latest 10 day(s).
| Time | Temp. | Humidity | Pressure | Rain* | Wind** | Luminosity | Snow |
|---|---|---|---|---|---|---|---|
| 1777489614 | 7.78° C | 39% | 1013.6 hPa | 0 mm | - | 0 W/m² | - |
| 1777489312 | 7.78° C | 39% | 1013.6 hPa | 0 mm | - | 0 W/m² | - |
| 1777489012 | 7.78° C | 38% | 1013.6 hPa | 0 mm | - | 0 W/m² | - |
| 1777488712 | 7.78° C | 38% | 1013.5 hPa | 0 mm | - | 0 W/m² | - |
| 1777488411 | 7.78° C | 38% | 1013.5 hPa | 0 mm | - | 0 W/m² | - |
| 1777488111 | 7.78° C | 38% | 1013.4 hPa | 0 mm | - | 0 W/m² | - |
| 1777487810 | 7.78° C | 37% | 1013.4 hPa | 0 mm | - | 0 W/m² | - |
| 1777487510 | 7.78° C | 38% | 1013.1 hPa | 0 mm | - | 0 W/m² | - |
| 1777487210 | 8.33° C | 37% | 1013.3 hPa | 0 mm | - | 0 W/m² | - |
| 1777486909 | 8.33° C | 37% | 1013.3 hPa | 0 mm | - | 0 W/m² | - |
| 1777486608 | 8.33° C | 37% | 1013.1 hPa | 0 mm | - | 1 W/m² | - |
| 1777486307 | 8.33° C | 37% | 1013.1 hPa | 0 mm | - | 2 W/m² | - |
| 1777486007 | 8.33° C | 36% | 1013.2 hPa | 0 mm | - | 3 W/m² | - |
| 1777485707 | 8.89° C | 36% | 1013.2 hPa | 0 mm | - | 5 W/m² | - |
| 1777485407 | 8.89° C | 35% | 1013 hPa | 0 mm | - | 7 W/m² | - |
| 1777485105 | 8.89° C | 35% | 1013 hPa | 0 mm | - | 10 W/m² | - |
| 1777484805 | 8.89° C | 36% | 1013.1 hPa | 0 mm | - | 13 W/m² | - |
| 1777484504 | 8.89° C | 36% | 1013 hPa | 0 mm | - | 16 W/m² | - |
| 1777484204 | 9.44° C | 36% | 1012.9 hPa | 0 mm | - | 19 W/m² | - |
| 1777483903 | 9.44° C | 36% | 1013 hPa | 0 mm | - | 23 W/m² | - |
| 1777483603 | 8.89° C | 36% | 1012.8 hPa | 0 mm | - | 26 W/m² | - |
| 1777483302 | 8.89° C | 36% | 1012.9 hPa | 0 mm | - | 30 W/m² | - |
| 1777483002 | 8.89° C | 36% | 1012.9 hPa | 0 mm | - | 32 W/m² | - |
| 1777482701 | 8.89° C | 36% | 1012.9 hPa | 0 mm | - | 28 W/m² | - |
| 1777482401 | 8.89° C | 36% | 1012.9 hPa | 0 mm | - | 26 W/m² | - |
* Rain latest hour (hover to see other rain measurements)
** Current wind speed in m/s (hover to see current wind gust speed)